Time,TemperatureF,DewpointF,PressureIn,WindDirection,WindDirectionDegrees,WindSpeedMPH,WindSpeedGustMPH,Humidity,HourlyPrecipIn,Conditions,Clouds,dailyrainin,SoftwareType,DateUTC
2013-03-11 00:00:00,40.3,34.6,30.29,SE,127,0.0,0.0,80,0.00,,,0.00,Wunderground v.1.15,2013-03-11 07:00:00,
2013-03-11 00:10:00,39.9,34.5,30.29,SE,127,0.0,0.0,81,0.00,,,0.00,Wunderground v.1.15,2013-03-11 07:10:00,
2013-03-11 00:15:00,39.8,34.4,30.29,SE,127,0.0,1.0,81,0.00,,,0.00,Wunderground v.1.15,2013-03-11 07:15:00,
2013-03-11 00:20:00,39.5,34.2,30.29,SE,127,1.0,2.0,81,0.00,,,0.00,Wunderground v.1.15,2013-03-11 07:20:00,
2013-03-11 00:25:00,39.2,33.9,30.29,SE,127,2.0,2.0,81,0.00,,,0.00,Wunderground v.1.15,2013-03-11 07:25:00,
2013-03-11 00:35:00,38.9,33.9,30.29,SE,127,0.0,1.0,82,0.00,,,0.00,Wunderground v.1.15,2013-03-11 07:35:00,
2013-03-11 00:40:00,38.9,34.2,30.29,SE,127,0.0,0.0,83,0.00,,,0.00,Wunderground v.1.15,2013-03-11 07:40:00,
2013-03-11 00:45:00,38.8,34.1,30.28,SE,127,0.0,0.0,83,0.00,,,0.00,Wunderground v.1.15,2013-03-11 07:45:00,
2013-03-11 00:50:00,38.8,34.1,30.28,SE,127,0.0,0.0,83,0.00,,,0.00,Wunderground v.1.15,2013-03-11 07:50:00,
2013-03-11 00:55:00,38.6,33.6,30.28,SE,127,0.0,0.0,82,0.00,,,0.00,Wunderground v.1.15,2013-03-11 07:55:00,
2013-03-11 01:05:00,38.3,33.6,30.28,SE,127,0.0,0.0,83,0.00,,,0.00,Wunderground v.1.15,2013-03-11 08:05:00,
2013-03-11 01:10:00,38.2,33.5,30.28,WSW,253,0.0,2.0,83,0.00,,,0.00,Wunderground v.1.15,2013-03-11 08:10:00,
2013-03-11 01:15:00,37.9,33.2,30.29,WSW,253,1.0,2.0,83,0.00,,,0.00,Wunderground v.1.15,2013-03-11 08:15:00,
2013-03-11 01:25:00,37.8,33.4,30.29,WSW,253,0.0,1.0,84,0.00,,,0.00,Wunderground v.1.15,2013-03-11 08:25:00,
2013-03-11 01:30:00,37.8,33.4,30.29,WSW,253,1.0,1.0,84,0.00,,,0.00,Wunderground v.1.15,2013-03-11 08:30:00,
2013-03-11 01:35:00,37.5,33.1,30.29,WSW,253,1.0,1.0,84,0.00,,,0.00,Wunderground v.1.15,2013-03-11 08:35:00,
2013-03-11 01:40:00,37.3,32.9,30.29,WSW,253,0.0,0.0,84,0.00,,,0.00,Wunderground v.1.15,2013-03-11 08:40:00,
2013-03-11 01:45:00,37.3,33.2,30.29,WSW,253,0.0,0.0,85,0.00,,,0.00,Wunderground v.1.15,2013-03-11 08:45:00,
2013-03-11 01:50:00,37.2,33.1,30.29,WSW,253,0.0,0.0,85,0.00,,,0.00,Wunderground v.1.15,2013-03-11 08:50:00,
2013-03-11 02:00:00,37.0,32.9,30.29,WSW,253,0.0,0.0,85,0.00,,,0.00,Wunderground v.1.15,2013-03-11 09:00:00,
2013-03-11 02:05:00,36.9,32.8,30.29,WSW,253,0.0,0.0,85,0.00,,,0.00,Wunderground v.1.15,2013-03-11 09:05:00,
2013-03-11 02:15:00,36.6,32.5,30.29,WSW,253,0.0,0.0,85,0.00,,,0.00,Wunderground v.1.15,2013-03-11 09:15:00,
2013-03-11 02:20:00,36.5,32.4,30.29,WSW,253,0.0,0.0,85,0.00,,,0.00,Wunderground v.1.15,2013-03-11 09:20:00,
2013-03-11 02:30:00,36.3,32.5,30.29,WSW,253,0.0,0.0,86,0.00,,,0.00,Wunderground v.1.15,2013-03-11 09:30:00,
2013-03-11 02:35:00,36.2,32.4,30.29,WSW,253,0.0,0.0,86,0.00,,,0.00,Wunderground v.1.15,2013-03-11 09:35:00,
2013-03-11 02:40:00,36.0,32.2,30.29,WSW,253,0.0,2.0,86,0.00,,,0.00,Wunderground v.1.15,2013-03-11 09:40:00,
2013-03-11 02:45:00,36.0,32.2,30.29,WSW,253,0.0,2.0,86,0.00,,,0.00,Wunderground v.1.15,2013-03-11 09:45:00,
2013-03-11 02:55:00,35.8,32.0,30.29,WSW,253,0.0,0.0,86,0.00,,,0.00,Wunderground v.1.15,2013-03-11 09:55:00,
2013-03-11 03:05:00,35.6,32.1,30.29,WSW,253,1.0,1.0,87,0.00,,,0.00,Wunderground v.1.15,2013-03-11 10:05:00,
2013-03-11 03:10:00,35.5,32.0,30.29,WSW,253,0.0,0.0,87,0.00,,,0.00,Wunderground v.1.15,2013-03-11 10:10:00,
2013-03-11 03:20:00,35.3,31.8,30.29,WSW,253,0.0,0.0,87,0.00,,,0.00,Wunderground v.1.15,2013-03-11 10:20:00,
2013-03-11 03:25:00,35.2,31.7,30.29,WSW,253,0.0,0.0,87,0.00,,,0.00,Wunderground v.1.15,2013-03-11 10:25:00,
2013-03-11 03:30:00,35.2,32.0,30.28,WSW,253,0.0,0.0,88,0.00,,,0.00,Wunderground v.1.15,2013-03-11 10:30:00,
2013-03-11 03:35:00,35.0,31.8,30.28,WSW,253,0.0,0.0,88,0.00,,,0.00,Wunderground v.1.15,2013-03-11 10:35:00,
2013-03-11 03:40:00,34.9,31.7,30.28,WSW,253,0.0,0.0,88,0.00,,,0.00,Wunderground v.1.15,2013-03-11 10:40:00,
2013-03-11 03:50:00,34.7,31.5,30.27,WSW,253,0.0,0.0,88,0.00,,,0.00,Wunderground v.1.15,2013-03-11 10:50:00,
2013-03-11 03:55:00,34.6,31.4,30.27,WSW,253,0.0,0.0,88,0.00,,,0.00,Wunderground v.1.15,2013-03-11 10:55:00,
2013-03-11 04:00:00,34.6,31.4,30.27,WSW,253,0.0,0.0,88,0.00,,,0.00,Wunderground v.1.15,2013-03-11 11:00:00,
2013-03-11 04:05:00,34.4,31.2,30.27,WSW,253,0.0,0.0,88,0.00,,,0.00,Wunderground v.1.15,2013-03-11 11:05:00,
2013-03-11 04:10:00,34.4,31.2,30.27,WSW,253,0.0,2.0,88,0.00,,,0.00,Wunderground v.1.15,2013-03-11 11:10:00,
2013-03-11 04:20:00,34.3,31.1,30.27,WSW,253,0.0,0.0,88,0.00,,,0.00,Wunderground v.1.15,2013-03-11 11:20:00,
2013-03-11 04:25:00,34.1,30.9,30.27,WSW,253,0.0,0.0,88,0.00,,,0.00,Wunderground v.1.15,2013-03-11 11:25:00,
2013-03-11 04:30:00,34.0,30.8,30.27,WSW,253,0.0,0.0,88,0.00,,,0.00,Wunderground v.1.15,2013-03-11 11:30:00,
2013-03-11 04:40:00,33.7,30.5,30.27,WSW,253,0.0,0.0,88,0.00,,,0.00,Wunderground v.1.15,2013-03-11 11:40:00,
2013-03-11 04:50:00,33.4,30.5,30.27,WSW,253,0.0,0.0,89,0.00,,,0.00,Wunderground v.1.15,2013-03-11 11:50:00,
2013-03-11 04:55:00,33.4,30.5,30.27,WSW,253,0.0,0.0,89,0.00,,,0.00,Wunderground v.1.15,2013-03-11 11:55:00,
2013-03-11 05:00:00,33.4,30.5,30.28,WSW,253,0.0,0.0,89,0.00,,,0.00,Wunderground v.1.15,2013-03-11 12:00:00,
2013-03-11 05:10:00,33.2,30.3,30.28,WSW,253,0.0,0.0,89,0.00,,,0.00,Wunderground v.1.15,2013-03-11 12:10:00,
2013-03-11 05:15:00,33.1,30.2,30.28,WSW,253,0.0,0.0,89,0.00,,,0.00,Wunderground v.1.15,2013-03-11 12:15:00,
2013-03-11 05:20:00,33.1,30.2,30.28,WSW,253,0.0,0.0,89,0.00,,,0.00,Wunderground v.1.15,2013-03-11 12:20:00,
2013-03-11 05:25:00,33.1,30.2,30.28,WSW,253,0.0,0.0,89,0.00,,,0.00,Wunderground v.1.15,2013-03-11 12:25:00,
2013-03-11 05:30:00,32.9,30.0,30.28,WSW,253,0.0,0.0,89,0.00,,,0.00,Wunderground v.1.15,2013-03-11 12:30:00,
2013-03-11 05:40:00,32.5,29.6,30.28,WSW,253,0.0,0.0,89,0.00,,,0.00,Wunderground v.1.15,2013-03-11 12:40:00,
2013-03-11 05:45:00,32.4,29.5,30.29,WSW,253,0.0,0.0,89,0.00,,,0.00,Wunderground v.1.15,2013-03-11 12:45:00,
2013-03-11 05:50:00,32.5,29.9,30.29,WSW,253,0.0,1.0,90,0.00,,,0.00,Wunderground v.1.15,2013-03-11 12:50:00,
2013-03-11 06:00:00,32.4,29.5,30.29,WSW,253,0.0,0.0,89,0.00,,,0.00,Wunderground v.1.15,2013-03-11 13:00:00,
2013-03-11 06:05:00,32.4,29.8,30.29,WSW,253,0.0,0.0,90,0.00,,,0.00,Wunderground v.1.15,2013-03-11 13:05:00,
2013-03-11 06:10:00,32.2,29.6,30.29,WSW,253,0.0,0.0,90,0.00,,,0.00,Wunderground v.1.15,2013-03-11 13:10:00,
2013-03-11 06:20:00,32.1,29.5,30.29,WSW,253,0.0,1.0,90,0.00,,,0.00,Wunderground v.1.15,2013-03-11 13:20:00,
2013-03-11 06:25:00,31.9,29.3,30.29,WSW,253,1.0,1.0,90,0.00,,,0.00,Wunderground v.1.15,2013-03-11 13:25:00,
2013-03-11 06:30:00,31.8,29.2,30.29,WSW,253,1.0,1.0,90,0.00,,,0.00,Wunderground v.1.15,2013-03-11 13:30:00,
2013-03-11 06:40:00,31.6,29.0,30.29,WSW,253,0.0,0.0,90,0.00,,,0.00,Wunderground v.1.15,2013-03-11 13:40:00,
2013-03-11 06:45:00,31.8,29.2,30.29,WSW,253,0.0,0.0,90,0.00,,,0.00,Wunderground v.1.15,2013-03-11 13:45:00,
2013-03-11 06:55:00,31.8,29.2,30.29,WSW,253,0.0,0.0,90,0.00,,,0.00,Wunderground v.1.15,2013-03-11 13:55:00,
2013-03-11 07:00:00,31.6,29.0,30.29,WSW,253,0.0,0.0,90,0.00,,,0.00,Wunderground v.1.15,2013-03-11 14:00:00,
2013-03-11 07:10:00,31.3,28.7,30.29,WSW,253,0.0,0.0,90,0.00,,,0.00,Wunderground v.1.15,2013-03-11 14:10:00,
2013-03-11 07:15:00,31.3,28.7,30.29,WSW,253,0.0,0.0,90,0.00,,,0.00,Wunderground v.1.15,2013-03-11 14:15:00,
2013-03-11 07:20:00,31.3,28.7,30.29,WSW,253,0.0,1.0,90,0.00,,,0.00,Wunderground v.1.15,2013-03-11 14:20:00,
2013-03-11 07:30:00,31.3,29.0,30.29,WSW,253,0.0,0.0,91,0.00,,,0.00,Wunderground v.1.15,2013-03-11 14:30:00,
2013-03-11 07:35:00,31.2,28.6,30.29,WSW,253,0.0,0.0,90,0.00,,,0.00,Wunderground v.1.15,2013-03-11 14:35:00,
2013-03-11 07:45:00,31.2,28.9,30.30,WSW,253,0.0,0.0,91,0.00,,,0.00,Wunderground v.1.15,2013-03-11 14:45:00,
2013-03-11 07:50:00,31.2,28.9,30.30,WSW,253,0.0,0.0,91,0.00,,,0.00,Wunderground v.1.15,2013-03-11 14:50:00,
2013-03-11 08:00:00,31.5,29.2,30.30,WSW,253,0.0,0.0,91,0.00,,,0.00,Wunderground v.1.15,2013-03-11 15:00:00,
2013-03-11 08:05:00,31.6,29.3,30.30,WSW,253,0.0,0.0,91,0.00,,,0.00,Wunderground v.1.15,2013-03-11 15:05:00,
2013-03-11 08:10:00,31.9,29.6,30.30,WSW,253,0.0,0.0,91,0.00,,,0.00,Wunderground v.1.15,2013-03-11 15:10:00,
2013-03-11 08:20:00,32.8,30.7,30.30,WSW,253,0.0,0.0,92,0.00,,,0.00,Wunderground v.1.15,2013-03-11 15:20:00,
2013-03-11 08:25:00,33.5,31.4,30.30,WSW,253,0.0,0.0,92,0.00,,,0.00,Wunderground v.1.15,2013-03-11 15:25:00,
2013-03-11 08:30:00,33.8,31.5,30.30,WSW,253,0.0,0.0,91,0.00,,,0.00,Wunderground v.1.15,2013-03-11 15:30:00,
2013-03-11 08:40:00,34.9,32.5,30.30,WSW,253,0.0,0.0,91,0.00,,,0.00,Wunderground v.1.15,2013-03-11 15:40:00,
2013-03-11 08:45:00,36.0,33.6,30.30,WSW,253,0.0,0.0,91,0.00,,,0.00,Wunderground v.1.15,2013-03-11 15:45:00,
2013-03-11 08:50:00,36.5,33.8,30.30,WSW,253,0.0,0.0,90,0.00,,,0.00,Wunderground v.1.15,2013-03-11 15:50:00,
2013-03-11 08:55:00,37.6,34.4,30.30,WSW,253,0.0,0.0,88,0.00,,,0.00,Wunderground v.1.15,2013-03-11 15:55:00,
2013-03-11 09:05:00,39.8,35.1,30.30,WSW,253,0.0,0.0,83,0.00,,,0.00,Wunderground v.1.15,2013-03-11 16:05:00,
2013-03-11 09:10:00,41.5,36.4,30.30,WSW,253,0.0,0.0,82,0.00,,,0.00,Wunderground v.1.15,2013-03-11 16:10:00,
2013-03-11 09:15:00,42.5,36.8,30.30,WSW,253,0.0,0.0,80,0.00,,,0.00,Wunderground v.1.15,2013-03-11 16:15:00,
2013-03-11 09:25:00,44.2,37.4,30.30,WSW,253,0.0,0.0,77,0.00,,,0.00,Wunderground v.1.15,2013-03-11 16:25:00,
2013-03-11 09:30:00,45.4,37.9,30.29,WSW,253,0.0,0.0,75,0.00,,,0.00,Wunderground v.1.15,2013-03-11 16:30:00,
2013-03-11 09:35:00,45.8,38.0,30.29,WSW,253,0.0,0.0,74,0.00,,,0.00,Wunderground v.1.15,2013-03-11 16:35:00,
2013-03-11 09:40:00,47.0,38.1,30.29,WSW,253,0.0,0.0,71,0.00,,,0.00,Wunderground v.1.15,2013-03-11 16:40:00,
2013-03-11 09:50:00,49.5,39.0,30.29,WSW,253,0.0,0.0,67,0.00,,,0.00,Wunderground v.1.15,2013-03-11 16:50:00,
2013-03-11 09:55:00,50.1,39.2,30.29,WSW,253,0.0,0.0,66,0.00,,,0.00,Wunderground v.1.15,2013-03-11 16:55:00,
2013-03-11 10:00:00,50.8,38.7,30.29,ESE,105,0.0,0.0,63,0.00,,,0.00,Wunderground v.1.15,2013-03-11 17:00:00,
2013-03-11 10:10:00,52.3,39.2,30.29,ESE,105,0.0,0.0,61,0.00,,,0.00,Wunderground v.1.15,2013-03-11 17:10:00,
2013-03-11 10:15:00,53.3,38.9,30.28,ESE,105,0.0,0.0,58,0.00,,,0.00,Wunderground v.1.15,2013-03-11 17:15:00,
2013-03-11 10:20:00,54.4,39.0,30.28,ESE,105,0.0,0.0,56,0.00,,,0.00,Wunderground v.1.15,2013-03-11 17:20:00,
2013-03-11 10:30:00,55.6,39.2,30.27,SSE,155,0.0,0.0,54,0.00,,,0.00,Wunderground v.1.15,2013-03-11 17:30:00,
2013-03-11 10:35:00,56.2,39.8,30.27,SSE,155,0.0,0.0,54,0.00,,,0.00,Wunderground v.1.15,2013-03-11 17:35:00,
2013-03-11 10:40:00,57.3,39.3,30.27,SSE,161,0.0,0.0,51,0.00,,,0.00,Wunderground v.1.15,2013-03-11 17:40:00,
2013-03-11 10:50:00,58.6,40.5,30.27,SSE,161,0.0,0.0,51,0.00,,,0.00,Wunderground v.1.15,2013-03-11 17:50:00,
2013-03-11 10:55:00,59.5,39.8,30.27,SSE,161,0.0,0.0,48,0.00,,,0.00,Wunderground v.1.15,2013-03-11 17:55:00,
2013-03-11 11:00:00,59.9,39.6,30.26,SSE,157,0.0,0.0,47,0.00,,,0.00,Wunderground v.1.15,2013-03-11 18:00:00,
2013-03-11 11:10:00,61.6,38.9,30.26,SSE,157,0.0,1.0,43,0.00,,,0.00,Wunderground v.1.15,2013-03-11 18:10:00,
2013-03-11 11:20:00,63.9,38.4,30.25,SSE,157,0.0,0.0,39,0.00,,,0.00,Wunderground v.1.15,2013-03-11 18:20:00,
2013-03-11 11:25:00,63.4,38.0,30.25,ENE,72,0.0,0.0,39,0.00,,,0.00,Wunderground v.1.15,2013-03-11 18:25:00,
2013-03-11 11:30:00,63.2,38.5,30.25,East,99,1.0,2.0,40,0.00,,,0.00,Wunderground v.1.15,2013-03-11 18:30:00,
2013-03-11 11:40:00,65.0,38.1,30.25,ESE,107,1.0,1.0,37,0.00,,,0.00,Wunderground v.1.15,2013-03-11 18:40:00,
2013-03-11 11:45:00,65.3,37.6,30.24,ESE,107,0.0,1.0,36,0.00,,,0.00,Wunderground v.1.15,2013-03-11 18:45:00,
2013-03-11 11:50:00,66.0,36.8,30.24,ESE,107,0.0,0.0,34,0.00,,,0.00,Wunderground v.1.15,2013-03-11 18:50:00,
2013-03-11 12:00:00,66.8,36.8,30.23,East,84,1.0,2.0,33,0.00,,,0.00,Wunderground v.1.15,2013-03-11 19:00:00,
2013-03-11 12:05:00,67.6,36.7,30.23,East,96,1.0,3.0,32,0.00,,,0.00,Wunderground v.1.15,2013-03-11 19:05:00,
2013-03-11 12:10:00,68.1,35.5,30.23,ESE,109,1.0,2.0,30,0.00,,,0.00,Wunderground v.1.15,2013-03-11 19:10:00,
2013-03-11 12:15:00,68.4,34.9,30.22,East,92,2.0,3.0,29,0.00,,,0.00,Wunderground v.1.15,2013-03-11 19:15:00,
2013-03-11 12:20:00,68.4,34.0,30.22,ENE,74,3.0,3.0,28,0.00,,,0.00,Wunderground v.1.15,2013-03-11 19:20:00,
2013-03-11 12:30:00,69.3,32.9,30.21,East,101,3.0,3.0,26,0.00,,,0.00,Wunderground v.1.15,2013-03-11 19:30:00,
2013-03-11 12:35:00,69.6,34.1,30.21,East,95,2.0,3.0,27,0.00,,,0.00,Wunderground v.1.15,2013-03-11 19:35:00,
2013-03-11 12:40:00,69.9,33.4,30.21,East,88,2.0,2.0,26,0.00,,,0.00,Wunderground v.1.15,2013-03-11 19:40:00,
2013-03-11 12:50:00,70.8,33.2,30.20,SE,124,1.0,2.0,25,0.00,,,0.00,Wunderground v.1.15,2013-03-11 19:50:00,
2013-03-11 13:00:00,70.6,34.0,30.19,ENE,71,3.0,3.0,26,0.00,,,0.00,Wunderground v.1.15,2013-03-11 20:00:00,
2013-03-11 13:05:00,71.3,33.6,30.19,ENE,69,2.0,3.0,25,0.00,,,0.00,Wunderground v.1.15,2013-03-11 20:05:00,
2013-03-11 13:10:00,72.0,34.2,30.19,North,355,2.0,2.0,25,0.00,,,0.00,Wunderground v.1.15,2013-03-11 20:10:00,
2013-03-11 13:20:00,72.0,34.2,30.19,East,98,3.0,3.0,25,0.00,,,0.00,Wunderground v.1.15,2013-03-11 20:20:00,
2013-03-11 13:25:00,72.0,34.2,30.19,ENE,74,3.0,3.0,25,0.00,,,0.00,Wunderground v.1.15,2013-03-11 20:25:00,
2013-03-11 13:30:00,72.7,34.8,30.18,East,98,2.0,5.0,25,0.00,,,0.00,Wunderground v.1.15,2013-03-11 20:30:00,
2013-03-11 13:35:00,72.7,33.8,30.18,SE,140,3.0,5.0,24,0.00,,,0.00,Wunderground v.1.15,2013-03-11 20:35:00,
2013-03-11 13:40:00,73.2,35.2,30.18,ENE,60,2.0,2.0,25,0.00,,,0.00,Wunderground v.1.15,2013-03-11 20:40:00,
2013-03-11 13:45:00,73.0,34.1,30.17,NE,47,2.0,2.0,24,0.00,,,0.00,Wunderground v.1.15,2013-03-11 20:45:00,
2013-03-11 13:50:00,73.2,35.2,30.17,East,87,2.0,3.0,25,0.00,,,0.00,Wunderground v.1.15,2013-03-11 20:50:00,
2013-03-11 14:00:00,73.3,35.3,30.16,ENE,67,2.0,4.0,25,0.00,,,0.00,Wunderground v.1.15,2013-03-11 21:00:00,
2013-03-11 14:05:00,73.5,34.5,30.16,East,92,3.0,4.0,24,0.00,,,0.00,Wunderground v.1.15,2013-03-11 21:05:00,
2013-03-11 14:10:00,74.0,34.9,30.16,ESE,102,3.0,3.0,24,0.00,,,0.00,Wunderground v.1.15,2013-03-11 21:10:00,
2013-03-11 14:20:00,74.4,35.2,30.15,NNE,22,2.0,2.0,24,0.00,,,0.00,Wunderground v.1.15,2013-03-11 21:20:00,
2013-03-11 14:25:00,74.6,35.4,30.15,ESE,114,2.0,2.0,24,0.00,,,0.00,Wunderground v.1.15,2013-03-11 21:25:00,
2013-03-11 14:30:00,74.2,36.1,30.14,ENE,66,2.0,5.0,25,0.00,,,0.00,Wunderground v.1.15,2013-03-11 21:30:00,
2013-03-11 14:35:00,74.2,36.1,30.14,ENE,66,3.0,5.0,25,0.00,,,0.00,Wunderground v.1.15,2013-03-11 21:35:00,
2013-03-11 14:45:00,75.3,37.0,30.14,NE,50,3.0,3.0,25,0.00,,,0.00,Wunderground v.1.15,2013-03-11 21:45:00,
2013-03-11 14:50:00,75.3,36.0,30.14,ESE,121,3.0,7.0,24,0.00,,,0.00,Wunderground v.1.15,2013-03-11 21:50:00,
2013-03-11 14:55:00,74.9,36.7,30.14,SSE,157,4.0,7.0,25,0.00,,,0.00,Wunderground v.1.15,2013-03-11 21:55:00,
2013-03-11 15:00:00,74.7,36.5,30.13,East,86,4.0,5.0,25,0.00,,,0.00,Wunderground v.1.15,2013-03-11 22:00:00,
2013-03-11 15:10:00,75.4,36.1,30.13,SE,145,3.0,3.0,24,0.00,,,0.00,Wunderground v.1.15,2013-03-11 22:10:00,
2013-03-11 15:15:00,75.4,36.1,30.13,ESE,109,3.0,7.0,24,0.00,,,0.00,Wunderground v.1.15,2013-03-11 22:15:00,
2013-03-11 15:20:00,76.0,36.6,30.13,SSE,155,4.0,5.0,24,0.00,,,0.00,Wunderground v.1.15,2013-03-11 22:20:00,
2013-03-11 15:25:00,76.0,35.5,30.13,East,86,4.0,5.0,23,0.00,,,0.00,Wunderground v.1.15,2013-03-11 22:25:00,
2013-03-11 15:35:00,76.1,34.5,30.13,SE,125,1.0,6.0,22,0.00,,,0.00,Wunderground v.1.15,2013-03-11 22:35:00,
2013-03-11 15:40:00,76.0,35.5,30.13,WSW,252,2.0,2.0,23,0.00,,,0.00,Wunderground v.1.15,2013-03-11 22:40:00,
2013-03-11 15:45:00,76.3,35.8,30.13,North,9,1.0,3.0,23,0.00,,,0.00,Wunderground v.1.15,2013-03-11 22:45:00,
2013-03-11 15:50:00,76.1,36.7,30.13,South,176,2.0,2.0,24,0.00,,,0.00,Wunderground v.1.15,2013-03-11 22:50:00,
2013-03-11 16:00:00,75.8,36.4,30.12,East,88,3.0,3.0,24,0.00,,,0.00,Wunderground v.1.15,2013-03-11 23:00:00,
2013-03-11 16:05:00,76.1,36.7,30.12,North,5,3.0,3.0,24,0.00,,,0.00,Wunderground v.1.15,2013-03-11 23:05:00,
2013-03-11 16:10:00,76.1,36.7,30.12,East,94,3.0,3.0,24,0.00,,,0.00,Wunderground v.1.15,2013-03-11 23:10:00,
2013-03-11 16:20:00,75.3,39.0,30.11,East,88,4.0,8.0,27,0.00,,,0.00,Wunderground v.1.15,2013-03-11 23:20:00,
2013-03-11 16:30:00,74.9,34.6,30.11,SSW,200,6.0,6.0,23,0.00,,,0.00,Wunderground v.1.15,2013-03-11 23:30:00,
2013-03-11 16:40:00,75.8,34.2,30.11,North,5,2.0,3.0,22,0.00,,,0.00,Wunderground v.1.15,2013-03-11 23:40:00,
2013-03-11 16:45:00,75.8,34.2,30.11,North,5,2.0,3.0,22,0.00,,,0.00,Wunderground v.1.15,2013-03-11 23:45:00,
2013-03-11 16:55:00,75.6,35.2,30.11,North,360,3.0,6.0,23,0.00,,,0.00,Wunderground v.1.15,2013-03-11 23:55:00,
2013-03-11 17:05:00,76.0,35.5,30.11,ESE,104,1.0,2.0,23,0.00,,,0.00,Wunderground v.1.15,2013-03-12 00:05:00,
2013-03-11 17:10:00,75.8,34.2,30.11,NE,47,1.0,3.0,22,0.00,,,0.00,Wunderground v.1.15,2013-03-12 00:10:00,
2013-03-11 17:20:00,74.7,35.5,30.10,East,91,3.0,5.0,24,0.00,,,0.00,Wunderground v.1.15,2013-03-12 00:20:00,
2013-03-11 17:25:00,74.4,36.3,30.10,East,99,5.0,5.0,25,0.00,,,0.00,Wunderground v.1.15,2013-03-12 00:25:00,
2013-03-11 17:35:00,74.0,38.8,30.10,SE,140,1.0,4.0,28,0.00,,,0.00,Wunderground v.1.15,2013-03-12 00:35:00,
2013-03-11 17:40:00,73.9,36.8,30.10,SSE,147,0.0,0.0,26,0.00,,,0.00,Wunderground v.1.15,2013-03-12 00:40:00,
2013-03-11 17:45:00,73.9,37.8,30.09,SSE,147,0.0,0.0,27,0.00,,,0.00,Wunderground v.1.15,2013-03-12 00:45:00,
2013-03-11 17:50:00,73.5,38.4,30.09,SSE,147,0.0,0.0,28,0.00,,,0.00,Wunderground v.1.15,2013-03-12 00:50:00,
2013-03-11 18:00:00,71.8,38.7,30.09,SE,146,0.0,0.0,30,0.00,,,0.00,Wunderground v.1.15,2013-03-12 01:00:00,
2013-03-11 18:05:00,72.0,37.1,30.09,ESE,120,0.0,1.0,28,0.00,,,0.00,Wunderground v.1.15,2013-03-12 01:05:00,
2013-03-11 18:10:00,72.3,37.4,30.09,ESE,123,1.0,1.0,28,0.00,,,0.00,Wunderground v.1.15,2013-03-12 01:10:00,
2013-03-11 18:15:00,72.1,37.2,30.09,ESE,117,1.0,1.0,28,0.00,,,0.00,Wunderground v.1.15,2013-03-12 01:15:00,
2013-03-11 18:20:00,72.1,38.1,30.09,ESE,118,1.0,1.0,29,0.00,,,0.00,Wunderground v.1.15,2013-03-12 01:20:00,
2013-03-11 18:30:00,71.5,40.1,30.09,East,82,1.0,1.0,32,0.00,,,0.00,Wunderground v.1.15,2013-03-12 01:30:00,
2013-03-11 18:35:00,70.3,41.3,30.09,East,82,0.0,1.0,35,0.00,,,0.00,Wunderground v.1.15,2013-03-12 01:35:00,
2013-03-11 18:40:00,68.9,40.8,30.09,East,82,0.0,2.0,36,0.00,,,0.00,Wunderground v.1.15,2013-03-12 01:40:00,
2013-03-11 18:50:00,67.4,42.2,30.09,East,86,0.0,0.0,40,0.00,,,0.00,Wunderground v.1.15,2013-03-12 01:50:00,
2013-03-11 18:55:00,66.8,41.7,30.09,East,86,0.0,0.0,40,0.00,,,0.00,Wunderground v.1.15,2013-03-12 01:55:00,
2013-03-11 19:00:00,66.4,42.6,30.09,East,86,0.0,0.0,42,0.00,,,0.00,Wunderground v.1.15,2013-03-12 02:00:00,
2013-03-11 19:10:00,65.0,42.5,30.09,East,86,0.0,0.0,44,0.00,,,0.00,Wunderground v.1.15,2013-03-12 02:10:00,
2013-03-11 19:15:00,64.2,44.1,30.09,East,86,0.0,0.0,48,0.00,,,0.00,Wunderground v.1.15,2013-03-12 02:15:00,
2013-03-11 19:20:00,63.2,43.7,30.09,East,86,0.0,0.0,49,0.00,,,0.00,Wunderground v.1.15,2013-03-12 02:20:00,
2013-03-11 19:30:00,61.6,42.8,30.09,East,86,0.0,0.0,50,0.00,,,0.00,Wunderground v.1.15,2013-03-12 02:30:00,
2013-03-11 19:40:00,60.2,43.0,30.09,East,86,0.0,0.0,53,0.00,,,0.00,Wunderground v.1.15,2013-03-12 02:40:00,
2013-03-11 19:45:00,59.5,42.8,30.10,East,86,0.0,0.0,54,0.00,,,0.00,Wunderground v.1.15,2013-03-12 02:45:00,
2013-03-11 19:50:00,58.7,43.0,30.10,East,86,0.0,0.0,56,0.00,,,0.00,Wunderground v.1.15,2013-03-12 02:50:00,
2013-03-11 20:00:00,57.5,42.8,30.10,East,86,0.0,0.0,58,0.00,,,0.00,Wunderground v.1.15,2013-03-12 03:00:00,
2013-03-11 20:05:00,57.0,42.4,30.10,East,86,0.0,0.0,58,0.00,,,0.00,Wunderground v.1.15,2013-03-12 03:05:00,
2013-03-11 20:10:00,56.6,42.4,30.10,East,86,0.0,0.0,59,0.00,,,0.00,Wunderground v.1.15,2013-03-12 03:10:00,
2013-03-11 20:20:00,55.6,42.4,30.10,East,86,0.0,0.0,61,0.00,,,0.00,Wunderground v.1.15,2013-03-12 03:20:00,
2013-03-11 20:25:00,55.3,42.1,30.10,East,86,0.0,0.0,61,0.00,,,0.00,Wunderground v.1.15,2013-03-12 03:25:00,
2013-03-11 20:30:00,54.8,42.0,30.11,East,86,0.0,0.0,62,0.00,,,0.00,Wunderground v.1.15,2013-03-12 03:30:00,
2013-03-11 20:35:00,54.4,42.1,30.11,East,86,0.0,2.0,63,0.00,,,0.00,Wunderground v.1.15,2013-03-12 03:35:00,
2013-03-11 20:40:00,54.1,41.8,30.11,East,86,1.0,1.0,63,0.00,,,0.00,Wunderground v.1.15,2013-03-12 03:40:00,
2013-03-11 20:50:00,53.3,41.8,30.11,East,86,0.0,0.0,65,0.00,,,0.00,Wunderground v.1.15,2013-03-12 03:50:00,
2013-03-11 20:55:00,52.9,41.8,30.11,East,86,0.0,0.0,66,0.00,,,0.00,Wunderground v.1.15,2013-03-12 03:55:00,
2013-03-11 21:00:00,52.6,41.6,30.11,East,86,0.0,1.0,66,0.00,,,0.00,Wunderground v.1.15,2013-03-12 04:00:00,
2013-03-11 21:10:00,51.9,41.3,30.11,East,86,0.0,0.0,67,0.00,,,0.00,Wunderground v.1.15,2013-03-12 04:10:00,
2013-03-11 21:15:00,51.4,41.6,30.11,East,86,0.0,1.0,69,0.00,,,0.00,Wunderground v.1.15,2013-03-12 04:15:00,
2013-03-11 21:20:00,50.8,41.0,30.11,East,86,1.0,1.0,69,0.00,,,0.00,Wunderground v.1.15,2013-03-12 04:20:00,
2013-03-11 21:30:00,50.2,41.2,30.13,East,86,0.0,0.0,71,0.00,,,0.00,Wunderground v.1.15,2013-03-12 04:30:00,
2013-03-11 21:35:00,50.1,41.1,30.13,East,86,0.0,0.0,71,0.00,,,0.00,Wunderground v.1.15,2013-03-12 04:35:00,
2013-03-11 21:40:00,49.8,41.1,30.13,East,86,0.0,0.0,72,0.00,,,0.00,Wunderground v.1.15,2013-03-12 04:40:00,
2013-03-11 21:45:00,49.6,40.6,30.13,East,86,0.0,0.0,71,0.00,,,0.00,Wunderground v.1.15,2013-03-12 04:45:00,
2013-03-11 21:50:00,49.2,40.6,30.13,East,86,1.0,1.0,72,0.00,,,0.00,Wunderground v.1.15,2013-03-12 04:50:00,
2013-03-11 22:00:00,48.9,40.6,30.13,East,86,0.0,0.0,73,0.00,,,0.00,Wunderground v.1.15,2013-03-12 05:00:00,
2013-03-11 22:05:00,48.5,40.2,30.13,East,86,0.0,0.0,73,0.00,,,0.00,Wunderground v.1.15,2013-03-12 05:05:00,
2013-03-11 22:10:00,48.3,40.4,30.13,East,86,0.0,0.0,74,0.00,,,0.00,Wunderground v.1.15,2013-03-12 05:10:00,
2013-03-11 22:20:00,47.7,40.2,30.13,East,86,1.0,1.0,75,0.00,,,0.00,Wunderground v.1.15,2013-03-12 05:20:00,
2013-03-11 22:30:00,47.3,40.1,30.13,East,86,0.0,0.0,76,0.00,,,0.00,Wunderground v.1.15,2013-03-12 05:30:00,
2013-03-11 22:35:00,47.0,39.8,30.13,East,86,0.0,0.0,76,0.00,,,0.00,Wunderground v.1.15,2013-03-12 05:35:00,
2013-03-11 22:40:00,46.7,39.9,30.13,East,86,0.0,0.0,77,0.00,,,0.00,Wunderground v.1.15,2013-03-12 05:40:00,
2013-03-11 22:45:00,46.5,39.7,30.13,East,86,0.0,0.0,77,0.00,,,0.00,Wunderground v.1.15,2013-03-12 05:45:00,
2013-03-11 22:55:00,46.2,39.7,30.13,East,86,0.0,0.0,78,0.00,,,0.00,Wunderground v.1.15,2013-03-12 05:55:00,
2013-03-11 23:00:00,46.1,39.6,30.13,East,86,0.0,0.0,78,0.00,,,0.00,Wunderground v.1.15,2013-03-12 06:00:00,
2013-03-11 23:05:00,46.0,39.9,30.13,East,86,0.0,0.0,79,0.00,,,0.00,Wunderground v.1.15,2013-03-12 06:05:00,
2013-03-11 23:10:00,45.7,39.6,30.13,East,86,0.0,0.0,79,0.00,,,0.00,Wunderground v.1.15,2013-03-12 06:10:00,
2013-03-11 23:15:00,45.5,39.7,30.13,East,86,0.0,0.0,80,0.00,,,0.00,Wunderground v.1.15,2013-03-12 06:15:00,
2013-03-11 23:20:00,45.4,39.6,30.13,East,86,0.0,0.0,80,0.00,,,0.00,Wunderground v.1.15,2013-03-12 06:20:00,
2013-03-11 23:30:00,45.1,39.0,30.14,East,86,0.0,0.0,79,0.00,,,0.00,Wunderground v.1.15,2013-03-12 06:30:00,
2013-03-11 23:35:00,44.8,39.0,30.14,East,86,0.0,0.0,80,0.00,,,0.00,Wunderground v.1.15,2013-03-12 06:35:00,
2013-03-11 23:40:00,44.6,39.1,30.14,East,86,0.0,0.0,81,0.00,,,0.00,Wunderground v.1.15,2013-03-12 06:40:00,
2013-03-11 23:50:00,44.3,38.8,30.13,East,86,0.0,0.0,81,0.00,,,0.00,Wunderground v.1.15,2013-03-12 06:50:00,
2013-03-11 23:55:00,44.3,39.2,30.13,East,86,0.0,0.0,82,0.00,,,0.00,Wunderground v.1.15,2013-03-12 06:55:00,